KOSEN 1
1 49402U 21102H   25322.59559616  .00009707  00000-0  41367-3 0  9992
2 49402  97.3509   3.9944 0013601 226.4723 133.5384 15.23072599221926
HO-113
1 50466U 21131B   25322.83490023  .00000984  00000-0  31948-3 0  9991
2 50466  98.5067  51.3763 0004345  25.2666 334.8734 14.41066683204812
SNUGLITE 2
1 52899U 22065F   25322.39884020  .00001848  00000-0  36382-3 0  9992
2 52899  98.1907 103.0728 0006856 333.5554  26.5297 14.63739347180156
UmKA 1 (RS40S)
1 57172U 23091G   25322.81285610  .00007420  00000-0  37014-3 0  9993
2 57172  97.5383  17.3856 0014883 128.6782 231.5785 15.17722273132067
CubeBel-2 (EU11S)
1 57175U 23091K   25322.81457819  .00013011  00000-0  55153-3 0  9995
2 57175  97.5381  19.6680 0012233 131.4387 228.7902 15.23198441132215
SONATE-2
1 59112U 24043Q   25322.35197611  .00032400  00000-0  72522-3 0  9998
2 59112  97.5319  97.7287 0008792 252.8937 107.1348 15.43365217 95214
MO-122
1 60209U 24125G   25322.50402197  .00036264  00000-0  78388-3 0  9991
2 60209  97.2551 172.8908 0013673 275.4359  84.5329 15.44316468 76868
GRBBeta
1 60237U 24128C   25322.75969535  .00006052  00000-0  43050-3 0  9996
2 60237  61.9908 233.4225 0056886  91.7459 269.0150 15.04437631 74583
Curium One
1 60242U 24128H   25322.73493594  .00010790  00000-0  67952-3 0  9998
2 60242  61.9801 228.9364 0056708  88.6306 272.1283 15.08306126 74662
ROBUSTA-3A
1 60243U 24128J   25322.46315203  .00010932  00000-0  69977-3 0  9996
2 60243  61.9876 231.3229 0056748  85.9691 274.7886 15.07701419 74608
CatSat
1 60246U 24125J   25322.10241027  .00035334  00000-0  91767-3 0  9994
2 60246  97.2357 169.7879 0033825 235.4018 124.4036 15.38283715 74738
HYPERVIEW-1G (RS66S)
1 61772U 24199AP  25322.86743609  .00042706  00000-0  88940-3 0  9996
2 61772  97.3241 192.0448 0010343 340.5791  19.5062 15.45423925101925
AO-123
1 61781U 24199AY  25322.89109395  .00010214  00000-0  33929-3 0  9993
2 61781  97.3274 188.6109 0014672 348.9388  11.1529 15.31293853101699
ZIMSAT 2
1 61783U 24199BA  25322.86205025  .00145439  00000-0  15352-2 0  9996
2 61783  97.3145 194.8200 0006360 344.6295  15.4769 15.63723250105268
HADES-R (SO-124)
1 62690U 25009CK  25322.11138384  .00122609  00000-0  20975-2 0  9997
2 62690  97.3932  43.9447 0002993 244.7462 115.3480 15.50816351 46952
HYDRA-T
1 62692U 25009CM  25322.11171871  .00131953  00000-0  21706-2 0  9992
2 62692  97.3927  44.0959 0002780 244.3765 115.7201 15.51886600 46965
JINJUSat 1B
1 63210U 25052A   25322.65676299  .00018405  00000-0  72483-3 0  9995
2 63210  97.4216 214.9803 0005953 100.1111 260.0799 15.25646415 37919
NUSHSAT 1
1 63211U 25052B   25322.27395712  .00022561  00000-0  86449-3 0  9997
2 63211  97.4197 214.6920 0005861 104.3734 255.8156 15.26518896 37865
TEVEL2-4
1 63213U 25052D   25322.65820688  .00019756  00000-0  77102-3 0  9994
2 63213  97.4115 214.6745 0004663 111.0736 249.1001 15.25940730 37914
TEVEL2-5
1 63214U 25052E   25322.26911917  .00020814  00000-0  81389-3 0  9997
2 63214  97.4121 214.2788 0004753 114.5072 245.6663 15.25864023 37854
TEVEL2-6
1 63215U 25052F   25322.66914751  .00019375  00000-0  75873-3 0  9992
2 63215  97.4116 214.6652 0004724 111.8062 248.3679 15.25830273 37914
TEVEL2-1
1 63217U 25052H   25322.64127970  .00018931  00000-0  74827-3 0  9996
2 63217  97.4094 214.4684 0004463 121.5458 238.6216 15.25525917 37905
TEVEL2-3
1 63218U 25052J   25322.64079075  .00019030  00000-0  75174-3 0  9996
2 63218  97.4094 214.4723 0004572 122.0275 238.1407 15.25543246 37906
TEVEL2-2
1 63219U 25052K   25322.70765610  .00018826  00000-0  74407-3 0  9991
2 63219  97.4092 214.5342 0004528 121.7437 238.4242 15.25528482 37916
TEVEL2-9
1 63237U 25052AD  25322.64759169  .00018297  00000-0  75456-3 0  9993
2 63237  97.4158 214.2146 0007623 150.0941 210.0733 15.24091156 37870
TEVEL2-7
1 63238U 25052AE  25322.26530161  .00019313  00000-0  79967-3 0  9992
2 63238  97.4158 213.8150 0007666 151.8940 208.2713 15.23943617 37814
TEVEL2-8
1 63239U 25052AF  25322.20484992  .00018875  00000-0  78229-3 0  9999
2 63239  97.4156 213.7408 0007683 152.6368 207.5275 15.23914365 37802
HYDRA-W
1 63490U 25052BL  25322.64829076  .00057002  00000-0  15430-2 0  9991
2 63490  97.4083 216.1597 0009841 135.0509 225.1534 15.37441666 38018
HADES-ICM (SO-125)
1 63492U 25052BN  25322.22529763  .00062786  00000-0  17859-2 0  9999
2 63492  97.4093 215.5263 0009716 141.9583 218.2348 15.35869914 37937
Dragonfly
1 65729U 98067XH  25322.06784337  .00120116  00000-0  12275-2 0  9991
2 65729  51.6305 261.2981 0005128 140.2196 219.9175 15.64137736  9296
RSP-03
1 65732U 98067XL  25322.09450133  .00100833  00000-0  11057-2 0  9993
2 65732  51.6299 261.4708 0006644 121.8909 238.2732 15.62410883  9302
GHS-01
1 65733U 98067XM  25322.81564742  .00138194  00000-0  13274-2 0  9990
2 65733  51.6302 257.2896 0006057 145.8461 214.2925 15.65621307  9425
BOTAN
1 65942U 98067XP  25322.05464742  .00088033  00000-0  11672-2 0  9993
2 65942  51.6309 263.4546 0004689  96.6603 263.4923 15.57503266  6015
CEVROSAT1
1 98526C 25248E   25306.26352486  .00003971  00000+0  19360-3 0    07
2 98526  45.4084 255.8570 0001315 254.8982 118.2631 15.17600497    10
